Time,TemperatureF,DewpointF,PressureIn,WindDirection,WindDirectionDegrees,WindSpeedMPH,WindSpeedGustMPH,Humidity,HourlyPrecipIn,Conditions,Clouds,dailyrainin,SolarRadiationWatts/m^2,SoftwareType,DateUTC
2013-10-03 00:06:00,64.0,64.0,-100.00,ENE,62,1.0,3.0,100,0.00,,,0.00,0.000000,,2013-10-03 04:06:00,
2013-10-03 00:14:00,64.0,64.0,-100.00,ENE,62,1.0,3.0,100,0.00,,,0.00,0.000000,,2013-10-03 04:14:00,
2013-10-03 00:44:00,63.0,63.0,-100.00,ESE,102,2.0,2.0,100,0.00,,,0.00,0.000000,,2013-10-03 04:44:00,
2013-10-03 00:53:00,63.0,63.0,-100.00,ESE,102,2.0,2.0,100,0.00,,,0.00,0.000000,,2013-10-03 04:53:00,
2013-10-03 01:04:00,63.0,63.0,-100.00,ESE,102,2.0,2.0,100,0.00,,,0.00,0.000000,,2013-10-03 05:04:00,
2013-10-03 01:13:00,63.0,63.0,-100.00,ESE,102,2.0,2.0,100,0.00,,,0.00,0.000000,,2013-10-03 05:13:00,
2013-10-03 01:44:00,63.0,63.0,-100.00,ESE,106,1.0,3.0,100,0.00,,,0.00,0.000000,,2013-10-03 05:44:00,
2013-10-03 01:52:00,63.0,63.0,-100.00,ESE,106,1.0,3.0,100,0.00,,,0.00,0.000000,,2013-10-03 05:52:00,
2013-10-03 02:02:00,63.0,63.0,-100.00,ESE,106,1.0,3.0,100,0.00,,,0.00,0.000000,,2013-10-03 06:02:00,
2013-10-03 02:12:00,63.0,63.0,-100.00,ESE,106,1.0,3.0,100,0.00,,,0.00,0.000000,,2013-10-03 06:12:00,
2013-10-03 02:42:00,63.0,63.0,-100.00,SE,136,2.0,3.0,100,0.00,,,0.00,0.000000,,2013-10-03 06:42:00,
2013-10-03 02:52:00,63.0,63.0,-100.00,SE,136,2.0,3.0,100,0.00,,,0.00,0.000000,,2013-10-03 06:52:00,
2013-10-03 03:02:00,63.0,63.0,-100.00,SE,136,2.0,3.0,100,0.00,,,0.00,0.000000,,2013-10-03 07:02:00,
2013-10-03 03:11:00,63.0,63.0,-100.00,SE,136,2.0,3.0,100,0.00,,,0.00,0.000000,,2013-10-03 07:11:00,
2013-10-03 03:42:00,63.0,63.0,-100.00,SE,144,0.0,2.0,100,0.00,,,0.00,0.000000,,2013-10-03 07:42:00,
2013-10-03 03:52:00,63.0,63.0,-100.00,SE,144,0.0,2.0,100,0.00,,,0.00,0.000000,,2013-10-03 07:52:00,
2013-10-03 04:03:00,63.0,63.0,-100.00,SE,144,0.0,2.0,100,0.00,,,0.00,0.000000,,2013-10-03 08:03:00,
2013-10-03 04:12:00,63.0,63.0,-100.00,SE,144,0.0,2.0,100,0.00,,,0.00,0.000000,,2013-10-03 08:12:00,
2013-10-03 04:42:00,63.0,63.0,-100.00,SSE,148,3.0,4.0,100,0.00,,,0.00,0.000000,,2013-10-03 08:42:00,
2013-10-03 04:52:00,63.0,63.0,-100.00,SSE,148,3.0,4.0,100,0.00,,,0.00,0.000000,,2013-10-03 08:52:00,
2013-10-03 05:02:00,63.0,63.0,-100.00,SSE,148,3.0,4.0,100,0.00,,,0.00,0.000000,,2013-10-03 09:02:00,
2013-10-03 05:12:00,63.0,63.0,-100.00,SSE,148,3.0,4.0,100,0.00,,,0.00,0.000000,,2013-10-03 09:12:00,
2013-10-03 05:43:00,63.0,63.0,-100.00,SE,126,2.0,4.0,100,0.00,,,0.00,0.000000,,2013-10-03 09:43:00,
2013-10-03 05:53:00,63.0,63.0,-100.00,SE,126,2.0,4.0,100,0.00,,,0.00,0.000000,,2013-10-03 09:53:00,
2013-10-03 06:03:00,63.0,63.0,-100.00,SE,126,2.0,4.0,100,0.00,,,0.00,0.000000,,2013-10-03 10:03:00,
2013-10-03 06:13:00,63.0,63.0,-100.00,SE,126,2.0,4.0,100,0.00,,,0.00,0.000000,,2013-10-03 10:13:00,
2013-10-03 06:43:00,63.0,63.0,-100.00,South,180,0.0,2.0,100,0.00,,,0.00,0.000000,,2013-10-03 10:43:00,
2013-10-03 06:52:00,63.0,63.0,-100.00,South,180,0.0,2.0,100,0.00,,,0.00,0.000000,,2013-10-03 10:52:00,
2013-10-03 07:03:00,63.0,63.0,-100.00,South,180,0.0,2.0,100,0.00,,,0.00,0.000000,,2013-10-03 11:03:00,
2013-10-03 07:12:00,63.0,63.0,-100.00,South,180,0.0,2.0,100,0.00,,,0.00,0.000000,,2013-10-03 11:12:00,
2013-10-03 07:42:00,63.0,63.0,-100.00,ESE,119,0.0,2.0,100,0.00,,,0.00,0.000000,,2013-10-03 11:42:00,
2013-10-03 07:52:00,63.0,63.0,-100.00,ESE,119,0.0,2.0,100,0.00,,,0.00,0.000000,,2013-10-03 11:52:00,
2013-10-03 08:02:00,63.0,63.0,-100.00,ESE,119,0.0,2.0,100,0.00,,,0.00,0.000000,,2013-10-03 12:02:00,
2013-10-03 08:12:00,63.0,63.0,-100.00,ESE,119,0.0,2.0,100,0.00,,,0.00,0.000000,,2013-10-03 12:12:00,
2013-10-03 08:42:00,63.0,63.0,-100.00,ESE,123,2.0,3.0,100,0.00,,,-99.99,10.000000,,2013-10-03 12:42:00,
2013-10-03 08:52:00,63.0,63.0,-100.00,ESE,123,2.0,3.0,100,0.00,,,-99.99,10.000000,,2013-10-03 12:52:00,
2013-10-03 09:02:00,63.0,63.0,-100.00,ESE,123,2.0,3.0,100,0.00,,,-99.99,10.000000,,2013-10-03 13:02:00,
2013-10-03 09:11:00,63.0,63.0,-100.00,ESE,123,2.0,3.0,100,0.00,,,-99.99,10.000000,,2013-10-03 13:11:00,
2013-10-03 09:42:00,65.0,65.0,-100.00,South,169,3.0,4.0,100,0.00,,,0.00,44.000000,,2013-10-03 13:42:00,
2013-10-03 09:52:00,65.0,65.0,-100.00,South,169,3.0,4.0,100,0.00,,,0.00,44.000000,,2013-10-03 13:52:00,
2013-10-03 10:02:00,65.0,65.0,-100.00,South,169,3.0,4.0,100,0.00,,,0.00,44.000000,,2013-10-03 14:02:00,
2013-10-03 10:11:00,65.0,65.0,-100.00,South,169,3.0,4.0,100,0.00,,,0.00,44.000000,,2013-10-03 14:11:00,
2013-10-03 10:42:00,71.0,69.0,-100.00,South,169,4.0,7.0,95,0.00,,,0.00,163.000000,,2013-10-03 14:42:00,
2013-10-03 10:52:00,71.0,69.0,-100.00,South,169,4.0,7.0,95,0.00,,,0.00,163.000000,,2013-10-03 14:52:00,
2013-10-03 11:01:00,71.0,69.0,-100.00,South,169,4.0,7.0,95,0.00,,,0.00,163.000000,,2013-10-03 15:01:00,
2013-10-03 11:11:00,71.0,69.0,-100.00,South,169,4.0,7.0,95,0.00,,,0.00,163.000000,,2013-10-03 15:11:00,
2013-10-03 11:43:00,73.0,68.0,-100.00,WSW,240,3.0,7.0,85,0.00,,,0.00,217.000000,,2013-10-03 15:43:00,
2013-10-03 11:54:00,73.0,68.0,-100.00,WSW,240,3.0,7.0,85,0.00,,,0.00,217.000000,,2013-10-03 15:54:00,
2013-10-03 12:04:00,73.0,68.0,-100.00,WSW,240,3.0,7.0,85,0.00,,,0.00,217.000000,,2013-10-03 16:04:00,
2013-10-03 12:13:00,73.0,68.0,-100.00,WSW,240,3.0,7.0,85,0.00,,,0.00,217.000000,,2013-10-03 16:13:00,
2013-10-03 12:43:00,76.0,69.0,-100.00,SSW,200,4.0,6.0,80,0.00,,,0.00,300.000000,,2013-10-03 16:43:00,
2013-10-03 12:53:00,76.0,69.0,-100.00,SSW,200,4.0,6.0,80,0.00,,,0.00,300.000000,,2013-10-03 16:53:00,
2013-10-03 13:03:00,76.0,69.0,-100.00,SSW,200,4.0,6.0,80,0.00,,,0.00,300.000000,,2013-10-03 17:03:00,
2013-10-03 13:12:00,76.0,69.0,-100.00,SSW,200,4.0,6.0,80,0.00,,,0.00,300.000000,,2013-10-03 17:12:00,
2013-10-03 13:42:00,81.0,69.0,-100.00,West,261,5.0,8.0,66,0.00,,,0.00,532.000000,,2013-10-03 17:42:00,
2013-10-03 13:52:00,81.0,69.0,-100.00,West,261,5.0,8.0,66,0.00,,,0.00,532.000000,,2013-10-03 17:52:00,
2013-10-03 14:02:00,81.0,69.0,-100.00,West,261,5.0,8.0,66,0.00,,,0.00,532.000000,,2013-10-03 18:02:00,
2013-10-03 14:12:00,81.0,69.0,-100.00,West,261,5.0,8.0,66,0.00,,,0.00,532.000000,,2013-10-03 18:12:00,
2013-10-03 14:42:00,86.0,68.0,-100.00,South,177,6.0,12.0,55,0.00,,,0.00,659.000000,,2013-10-03 18:42:00,
2013-10-03 14:52:00,86.0,68.0,-100.00,South,177,6.0,12.0,55,0.00,,,0.00,659.000000,,2013-10-03 18:52:00,
2013-10-03 15:01:00,86.0,68.0,-100.00,South,177,6.0,12.0,55,0.00,,,0.00,659.000000,,2013-10-03 19:01:00,
2013-10-03 15:11:00,86.0,68.0,-100.00,South,177,6.0,12.0,55,0.00,,,0.00,659.000000,,2013-10-03 19:11:00,
2013-10-03 15:42:00,82.0,65.0,-100.00,SSW,205,6.0,12.0,56,0.00,,,0.00,349.000000,,2013-10-03 19:42:00,
2013-10-03 15:53:00,82.0,65.0,-100.00,SSW,205,6.0,12.0,56,0.00,,,0.00,349.000000,,2013-10-03 19:53:00,
2013-10-03 16:02:00,82.0,65.0,-100.00,SSW,205,6.0,12.0,56,0.00,,,0.00,349.000000,,2013-10-03 20:02:00,
2013-10-03 16:12:00,82.0,65.0,-100.00,SSW,205,6.0,12.0,56,0.00,,,0.00,349.000000,,2013-10-03 20:12:00,
2013-10-03 16:42:00,80.0,69.0,-100.00,SSW,203,7.0,12.0,69,0.00,,,0.00,163.000000,,2013-10-03 20:42:00,
2013-10-03 16:52:00,80.0,69.0,-100.00,SSW,203,7.0,12.0,69,0.00,,,0.00,163.000000,,2013-10-03 20:52:00,
2013-10-03 17:02:00,80.0,69.0,-100.00,SSW,203,7.0,12.0,69,0.00,,,0.00,163.000000,,2013-10-03 21:02:00,
2013-10-03 17:12:00,80.0,69.0,-100.00,SSW,203,7.0,12.0,69,0.00,,,0.00,163.000000,,2013-10-03 21:12:00,
2013-10-03 17:43:00,76.0,67.0,-100.00,SW,228,4.0,11.0,73,0.00,,,0.00,182.000000,,2013-10-03 21:43:00,
2013-10-03 17:54:00,76.0,67.0,-100.00,SW,228,4.0,11.0,73,0.00,,,0.00,182.000000,,2013-10-03 21:54:00,
2013-10-03 18:04:00,76.0,67.0,-100.00,SW,228,4.0,11.0,73,0.00,,,0.00,182.000000,,2013-10-03 22:04:00,
2013-10-03 18:13:00,76.0,67.0,-100.00,SW,228,4.0,11.0,73,0.00,,,0.00,182.000000,,2013-10-03 22:13:00,
2013-10-03 18:43:00,73.0,68.0,-100.00,NNW,343,1.0,14.0,83,0.00,,,0.00,54.000000,,2013-10-03 22:43:00,
2013-10-03 18:54:00,73.0,68.0,-100.00,NNW,343,1.0,14.0,83,0.00,,,0.00,54.000000,,2013-10-03 22:54:00,
2013-10-03 19:03:00,73.0,68.0,-100.00,NNW,343,1.0,14.0,83,0.00,,,0.00,54.000000,,2013-10-03 23:03:00,
2013-10-03 19:12:00,73.0,68.0,-100.00,NNW,343,1.0,14.0,83,0.00,,,0.00,54.000000,,2013-10-03 23:12:00,
2013-10-03 19:43:00,70.0,67.0,-100.00,South,172,2.0,4.0,91,0.00,,,0.00,24.000000,,2013-10-03 23:43:00,
2013-10-03 19:53:00,70.0,67.0,-100.00,South,172,2.0,4.0,91,0.00,,,0.00,24.000000,,2013-10-03 23:53:00,
2013-10-03 20:02:00,70.0,67.0,-100.00,South,172,2.0,4.0,91,0.00,,,0.00,24.000000,,2013-10-04 00:02:00,
2013-10-03 20:12:00,70.0,67.0,-100.00,South,172,2.0,4.0,91,0.00,,,0.00,24.000000,,2013-10-04 00:12:00,
2013-10-03 20:42:00,67.0,67.0,-100.00,SE,134,3.0,4.0,100,0.00,,,0.00,0.000000,,2013-10-04 00:42:00,
2013-10-03 20:52:00,67.0,67.0,-100.00,SE,134,3.0,4.0,100,0.00,,,0.00,0.000000,,2013-10-04 00:52:00,
2013-10-03 21:02:00,67.0,67.0,-100.00,SE,134,3.0,4.0,100,0.00,,,0.00,0.000000,,2013-10-04 01:02:00,
2013-10-03 21:12:00,67.0,67.0,-100.00,SE,134,3.0,4.0,100,0.00,,,0.00,0.000000,,2013-10-04 01:12:00,
2013-10-03 21:42:00,66.0,66.0,-100.00,ENE,60,3.0,4.0,100,0.00,,,0.00,0.000000,,2013-10-04 01:42:00,
2013-10-03 21:52:00,66.0,66.0,-100.00,ENE,60,3.0,4.0,100,0.00,,,0.00,0.000000,,2013-10-04 01:52:00,
2013-10-03 22:02:00,66.0,66.0,-100.00,ENE,60,3.0,4.0,100,0.00,,,0.00,0.000000,,2013-10-04 02:02:00,
2013-10-03 22:12:00,66.0,66.0,-100.00,ENE,60,3.0,4.0,100,0.00,,,0.00,0.000000,,2013-10-04 02:12:00,
2013-10-03 22:43:00,65.0,65.0,-100.00,South,175,1.0,3.0,100,0.00,,,0.00,0.000000,,2013-10-04 02:43:00,
2013-10-03 22:52:00,65.0,65.0,-100.00,South,175,1.0,3.0,100,0.00,,,0.00,0.000000,,2013-10-04 02:52:00,
2013-10-03 23:03:00,65.0,65.0,-100.00,South,175,1.0,3.0,100,0.00,,,0.00,0.000000,,2013-10-04 03:03:00,
2013-10-03 23:12:00,65.0,65.0,-100.00,South,175,1.0,3.0,100,0.00,,,0.00,0.000000,,2013-10-04 03:12:00,
2013-10-03 23:44:00,65.0,65.0,-100.00,South,175,3.0,4.0,100,0.00,,,0.00,0.000000,,2013-10-04 03:44:00,